Weather Roundup
Issued by NWS

Home | Current Version | Previous Version | Text Only | Print | Product List | Glossary On
Versions: 1 2 3 4 5 6 7 8 9 10 11 12 13 14 15 16 17 18 19 20 21 22 23 24 25 26 27 28 29 30 31 32 33 34 35 36 37 38 39 40 41 42 43 44 45 46 47 48 49 50
000
NZUS93 KARX 012259
HRRWXR

CURRENT HOURLY OBSERVATIONS ACROSS
MUCH OF THE UPPER MISSISSIPPI VALLEY
NATIONAL WEATHER SERVICE LA CROSSE WI
500 PM CST SUN MAR 01 2015


...SOUTHEAST MINNESOTA...


CITY           SKY/WX    TMP DP  RH WIND       PRES   REMARKS
ROCHESTER      CLEAR     21  10  62 W16       30.25R WCI   7
ROCHESTER/MAYO FAIR      25  10  53 W14       30.25S WCI  13
WINONA         CLEAR     27  10  50 W10G17    30.28R WCI  17
AUSTIN         CLEAR     25  12  58 W10G16    30.26S WCI  15
ALBERT LEA     CLEAR     27  12  54 W8G16     30.26S WCI  18
DODGE CENTER   CLEAR     23  14  68 W9        30.24S WCI  13
PRESTON        CLEAR     19  10  67 W13       30.26S WCI   7
OWATONNA       CLOUDY    27  12  54 W13       30.25S WCI  16
FARIBAULT      CLOUDY    27  14  59 W12       30.25S WCI  16
$$

...ELSEWHERE IN MINNESOTA...


CITY           SKY/WX    TMP DP  RH WIND       PRES   REMARKS
MINNEAPOLIS    FAIR      27  10  49 W16G24    30.23F WCI  15
INTNL FALLS    CLOUDY    18   7  62 NW14G20   30.10R HAZE    WCI   4
DULUTH         MOCLDY    23   7  50 W15G25    30.08R WCI  10
RED WING       MOCLDY    27  10  50 W12G20    30.24S WCI  16
REDWOOD FALLS  CLOUDY    29  16  58 NW20G28   30.27R WCI  16
MANKATO        CLOUDY    28  12  50 W17G24    30.26S WCI  16
FAIRMONT       PTSUNNY   28  12  50 W17       30.27S WCI  16
$$

...SOUTHWEST WISCONSIN...


CITY           SKY/WX    TMP DP  RH WIND       PRES   REMARKS
LA CROSSE      CLEAR     24   7  48 W14       30.27R WCI  12
PRAIRIE DU CHI CLEAR     24   8  51 W16       30.30S WCI  11
BOSCOBEL       CLEAR     25   9  50 W12G18    30.28R WCI  14
LONE ROCK      NOT AVBL
PLATTEVILLE    MOCLDY    25  18  73 SW16      30.25S WCI  12
FORT MC COY    CLEAR     25   4  39 W10G20    30.24R WCI  15
VIROQUA        FAIR      23   8  53 W14G22    30.22R WCI  10
WIS DELLS      NOT AVBL
$$

...ELSEWHERE IN WISCONSIN...


CITY           SKY/WX    TMP DP  RH WIND       PRES   REMARKS
MILWAUKEE      PTCLDY    26  13  57 SW14      30.21F WCI  14
MADISON        PTCLDY    27  16  63 W6        30.21S WCI  20
GREEN BAY      MOCLDY    26  16  65 W17       30.14F WCI  13
EAU CLAIRE     NOT AVBL
BLACK RVR FLS  FAIR      25   4  41 W15       30.22R WCI  12
MEDFORD        FAIR      21   8  56 W12       30.11S WCI   9
WAUSAU         CLEAR     20   9  62 W15       30.12S WCI   6
WIS RAPIDS     PTCLDY    24  10  55 W8        30.17F WCI  15
MARSHFIELD     CLEAR     22   6  50 W14       30.14F WCI   9
RICE LAKE      CLEAR     23   6  47 W10       30.19S WCI  12
$$

...NORTHEAST IOWA...


CITY           SKY/WX    TMP DP  RH WIND       PRES   REMARKS
DECORAH        CLEAR     21   7  53 W12G18    30.27S WCI   9
MASON CITY     SUNNY     25  14  63 W13       30.30S WCI  14
CHARLES CITY   CLEAR     23  12  63 W13       30.31R WCI  11
OELWEIN        CLEAR     21  12  68 W12       30.31S WCI   9
$$

...ELSEWHERE IN IOWA...


CITY           SKY/WX    TMP DP  RH WIND       PRES   REMARKS
DES MOINES     MOSUNNY   33  17  51 NW14      30.35S WCI  23
IOWA CITY      CLEAR     28  19  69 W15       30.35S WCI  16
FORT DODGE     PTSUNNY   28  18  64 W7        30.34S WCI  21
$$

...NORTHERN ILLINOIS...


CITY           SKY/WX    TMP DP  RH WIND       PRES   REMARKS
CHICAGO-OHARE  MOCLDY    23  14  68 W14       30.26S WCI  11
CHICAGO-MIDWAY MOCLDY    26  16  65 W14       30.28S WCI  14
MOLINE         CLEAR     26  16  65 W13       30.32F WCI  15
ROCKFORD       PTCLDY    24  14  65 W16       30.28F WCI  11
PEORIA         PTCLDY    27  16  63 W9        30.34S WCI  18
$$

NOTE: "FAIR" INDICATES FEW OR NO CLOUDS BELOW 12,000 FEET WITH NO
SIGNIFICANT WEATHER AND/OR OBSTRUCTIONS TO VISIBILITY. WIND
SPEEDS ARE IN MILES-PER-HOUR.



USA.gov is the U.S. government's official web portal to all federal, state and local government web resources and services.